EN

Hourly Weather La Concepcion

Today, 24 July, Saturday

Time Temperature Precipitation Wind Pressure Humidity
00:00 +11°C° 0 mm 1 mps 562 mmHg 88%
01:00 +9°C° 0 mm 0 mps 561 mmHg 88%
02:00 +8°C° 0 mm 0 mps 561 mmHg 88%
03:00 +8°C° 0 mm 0 mps 560 mmHg 88%
04:00 +8°C° 0 mm 0 mps 560 mmHg 88%
05:00 +7°C° 0 mm 0 mps 560 mmHg 88%
06:00 +10°C° 0 mm 0 mps 561 mmHg 81%
07:00 +12°C° 0 mm 0 mps 563 mmHg 75%
08:00 +14°C° 0 mm 0 mps 564 mmHg 68%
09:00 +16°C° 0 mm 0 mps 564 mmHg 61%
10:00 +20°C° 0 mm 1 mps 565 mmHg 54%
11:00 +22°C° 0 mm 1 mps 565 mmHg 47%
12:00 +21°C° 0.1 mm 2 mps 565 mmHg 49%
13:00 +21°C° 0.1 mm 2 mps 564 mmHg 52%
14:00 +20°C° 0.1 mm 3 mps 563 mmHg 54%
15:00 +19°C° 1 mm 2 mps 563 mmHg 64%
16:00 +17°C° 1 mm 2 mps 562 mmHg 73%
17:00 +15°C° 1 mm 1 mps 562 mmHg 82%
18:00 +14°C° 0.1 mm 1 mps 561 mmHg 85%
19:00 +13°C° 0.1 mm 1 mps 561 mmHg 87%
20:00 +12°C° 0.1 mm 1 mps 561 mmHg 90%
21:00 +12°C° 0 mm 1 mps 561 mmHg 90%
22:00 +12°C° 0 mm 1 mps 561 mmHg 90%
23:00 +10°C° 0 mm 0 mps 561 mmHg 89%

Tomorrow, 25 July, Sunday

Time Temperature Precipitation Wind Pressure Humidity
00:00 +10°C° 0 mm 0 mps 560 mmHg 90%
01:00 +9°C° 0 mm 0 mps 560 mmHg 90%
02:00 +10°C° 0 mm 1 mps 559 mmHg 91%
03:00 +9°C° 0 mm 0 mps 559 mmHg 91%
04:00 +8°C° 0 mm 0 mps 559 mmHg 91%
05:00 +8°C° 0 mm 0 mps 559 mmHg 91%
06:00 +10°C° 0.1 mm 0 mps 560 mmHg 85%
07:00 +13°C° 0.1 mm 0 mps 562 mmHg 79%
08:00 +15°C° 0.1 mm 0 mps 563 mmHg 73%
09:00 +19°C° 0.6 mm 1 mps 563 mmHg 66%
10:00 +20°C° 0.6 mm 1 mps 563 mmHg 58%
11:00 +22°C° 0.6 mm 1 mps 564 mmHg 50%
12:00 +21°C° 0.3 mm 2 mps 563 mmHg 53%
13:00 +20°C° 0.3 mm 2 mps 562 mmHg 56%
14:00 +20°C° 0.3 mm 3 mps 562 mmHg 59%
15:00 +18°C° 0.4 mm 3 mps 561 mmHg 67%
16:00 +17°C° 0.4 mm 2 mps 561 mmHg 74%
17:00 +16°C° 0.4 mm 2 mps 560 mmHg 81%
18:00 +14°C° 0.6 mm 2 mps 560 mmHg 85%
19:00 +13°C° 0.6 mm 2 mps 560 mmHg 90%
20:00 +12°C° 0.6 mm 2 mps 561 mmHg 94%
21:00 +11°C° 0 mm 1 mps 560 mmHg 94%
22:00 +11°C° 0 mm 1 mps 560 mmHg 94%
23:00 +10°C° 0 mm 1 mps 560 mmHg 93%

Day after tomorrow, 26 July, Monday

Time Temperature Precipitation Wind Pressure Humidity
00:00 +10°C° 0 mm 1 mps 559 mmHg 93%
01:00 +9°C° 0 mm 1 mps 559 mmHg 92%
02:00 +9°C° 0 mm 1 mps 558 mmHg 91%
03:00 +9°C° 0 mm 1 mps 558 mmHg 91%
04:00 +9°C° 0 mm 1 mps 558 mmHg 91%
05:00 +8°C° 0 mm 1 mps 558 mmHg 91%
06:00 +11°C° 0 mm 1 mps 559 mmHg 85%
07:00 +13°C° 0 mm 1 mps 561 mmHg 79%
08:00 +15°C° 0 mm 1 mps 562 mmHg 73%
09:00 +19°C° 0 mm 1 mps 562 mmHg 64%
10:00 +21°C° 0 mm 1 mps 563 mmHg 55%
11:00 +23°C° 0 mm 1 mps 564 mmHg 47%
12:00 +21°C° 0.1 mm 2 mps 563 mmHg 49%
13:00 +21°C° 0.1 mm 2 mps 562 mmHg 51%
14:00 +20°C° 0.1 mm 3 mps 562 mmHg 54%
15:00 +19°C° 0.4 mm 3 mps 561 mmHg 60%
16:00 +18°C° 0.4 mm 3 mps 561 mmHg 66%
17:00 +17°C° 0.4 mm 2 mps 560 mmHg 72%
18:00 +15°C° 0.2 mm 2 mps 560 mmHg 79%
19:00 +14°C° 0.2 mm 1 mps 560 mmHg 85%
20:00 +12°C° 0.2 mm 1 mps 560 mmHg 92%
21:00 +12°C° 0.1 mm 1 mps 560 mmHg 93%
22:00 +11°C° 0.1 mm 1 mps 560 mmHg 93%
23:00 +10°C° 0.1 mm 0 mps 560 mmHg 94%

27 July, Tuesday

Time Temperature Precipitation Wind Pressure Humidity
00:00 +10°C° 0 mm 0 mps 560 mmHg 94%
01:00 +9°C° 0 mm 0 mps 559 mmHg 94%
02:00 +9°C° 0 mm 0 mps 559 mmHg 95%
03:00 +9°C° 0 mm 0 mps 559 mmHg 95%
04:00 +9°C° 0 mm 0 mps 559 mmHg 95%
05:00 +9°C° 0 mm 1 mps 559 mmHg 95%
06:00 +12°C° 0 mm 1 mps 560 mmHg 89%
07:00 +14°C° 0 mm 1 mps 561 mmHg 83%
08:00 +16°C° 0 mm 1 mps 562 mmHg 77%
09:00 +19°C° 0.2 mm 1 mps 563 mmHg 70%
10:00 +19°C° 0.2 mm 2 mps 563 mmHg 62%
11:00 +21°C° 0.2 mm 2 mps 563 mmHg 55%
12:00 +21°C° 0.5 mm 2 mps 563 mmHg 54%
13:00 +21°C° 0.5 mm 2 mps 563 mmHg 53%
14:00 +21°C° 0.5 mm 3 mps 562 mmHg 52%
15:00 +20°C° 0.2 mm 3 mps 562 mmHg 55%
16:00 +19°C° 0.2 mm 3 mps 562 mmHg 59%
17:00 +18°C° 0.2 mm 3 mps 561 mmHg 62%
18:00 +16°C° 0 mm 2 mps 561 mmHg 71%
19:00 +14°C° 0 mm 2 mps 560 mmHg 80%
20:00 +12°C° 0 mm 1 mps 560 mmHg 89%
21:00 +11°C° 0 mm 1 mps 560 mmHg 90%
22:00 +11°C° 0 mm 1 mps 560 mmHg 92%
23:00 +10°C° 0 mm 1 mps 560 mmHg 93%

28 July, Wednesday

Time Temperature Precipitation Wind Pressure Humidity
00:00 +10°C° 0 mm 1 mps 559 mmHg 93%
01:00 +9°C° 0 mm 1 mps 559 mmHg 93%
02:00 +9°C° 0 mm 1 mps 559 mmHg 93%
03:00 +9°C° 0 mm 1 mps 559 mmHg 92%
04:00 +8°C° 0 mm 0 mps 559 mmHg 92%
05:00 +8°C° 0 mm 0 mps 559 mmHg 91%
06:00 +11°C° 0 mm 1 mps 560 mmHg 82%
07:00 +13°C° 0 mm 1 mps 561 mmHg 72%
08:00 +16°C° 0 mm 1 mps 562 mmHg 62%
09:00 +18°C° 0.1 mm 2 mps 563 mmHg 56%
10:00 +19°C° 0.1 mm 2 mps 563 mmHg 51%
11:00 +21°C° 0.1 mm 3 mps 563 mmHg 45%
12:00 +21°C° 0.1 mm 3 mps 563 mmHg 43%
13:00 +21°C° 0.1 mm 4 mps 563 mmHg 41%
14:00 +22°C° 0.1 mm 4 mps 562 mmHg 39%
15:00 +21°C° 0 mm 4 mps 562 mmHg 46%
16:00 +20°C° 0 mm 3 mps 561 mmHg 52%
17:00 +18°C° 0 mm 3 mps 561 mmHg 59%
18:00 +16°C° 0 mm 2 mps 560 mmHg 69%
19:00 +14°C° 0 mm 2 mps 560 mmHg 79%
20:00 +11°C° 0 mm 1 mps 559 mmHg 89%
21:00 +11°C° 0 mm 1 mps 559 mmHg 90%
22:00 +11°C° 0 mm 1 mps 559 mmHg 91%
23:00 +9°C° 0 mm 0 mps 559 mmHg 92%

29 July, Thursday

Time Temperature Precipitation Wind Pressure Humidity
00:00 +10°C° 0 mm 1 mps 559 mmHg 92%
01:00 +10°C° 0 mm 1 mps 558 mmHg 93%
02:00 +10°C° 0 mm 1 mps 558 mmHg 93%
03:00 +9°C° 0 mm 1 mps 558 mmHg 94%
04:00 +9°C° 0 mm 1 mps 558 mmHg 94%
05:00 +9°C° 0 mm 1 mps 558 mmHg 95%
06:00 +11°C° 0 mm 1 mps 559 mmHg 88%
07:00 +14°C° 0 mm 1 mps 560 mmHg 80%
08:00 +16°C° 0 mm 1 mps 562 mmHg 73%
09:00 +19°C° 0.4 mm 1 mps 562 mmHg 69%
10:00 +20°C° 0.4 mm 1 mps 562 mmHg 64%
11:00 +22°C° 0.4 mm 1 mps 562 mmHg 60%
12:00 +21°C° 1 mm 1 mps 562 mmHg 63%
13:00 +20°C° 1 mm 2 mps 561 mmHg 65%
14:00 +19°C° 1 mm 2 mps 561 mmHg 67%
15:00 +18°C° 0.8 mm 2 mps 560 mmHg 74%
16:00 +17°C° 0.8 mm 2 mps 560 mmHg 80%
17:00 +16°C° 0.8 mm 2 mps 559 mmHg 86%
18:00 +15°C° 1.4 mm 1 mps 559 mmHg 89%
19:00 +14°C° 1.4 mm 1 mps 560 mmHg 93%
20:00 +12°C° 1.4 mm 0 mps 560 mmHg 96%
21:00 +12°C° 1.9 mm 0 mps 560 mmHg 96%
22:00 +12°C° 1.9 mm 0 mps 560 mmHg 97%
23:00 +12°C° 1.9 mm 0 mps 560 mmHg 97%
Show more